ETD88F OLBA-OMAA

Flight info

Callsign ETD88F
Flight time 3h 25m
Altitude 37000
Route LEBOR R655 KTN R785 RASLI P559 TRF R23 NEVOL N318 TAMRO T503 KIA M440 SITER DCT KATIT DCT PEKEM M628 RIGIL G783 ELUDA N563 NOBTO
Aircraft A20N/M-SDE2E3FGHIRWXY/LB1

Departure

Time 2026-05-06 11:28
Airport Beirut Rafic Hariri International Airport (OLBA)

Arrival

Time 2026-05-06 14:54
Airport Zayed International Airport (OMAA)
Time Latitude Longitude Altitude Speed Heading
2026-05-06 11:01 33.82322 35.49417 91 ft 0 kts 313°
2026-05-06 11:18 33.82313 35.49429 92 ft 2 kts 319°
2026-05-06 11:18 33.82301 35.49439 92 ft 2 kts 331°
2026-05-06 11:19 33.82287 35.49446 92 ft 2 kts 343°
2026-05-06 11:19 33.82272 35.49450 92 ft 2 kts 354°
2026-05-06 11:19 33.82257 35.49451 92 ft 2 kts
2026-05-06 11:19 33.82243 35.49448 92 ft 2 kts 17°
2026-05-06 11:20 33.82229 35.49442 92 ft 2 kts 27°
2026-05-06 11:20 33.82221 35.49437 92 ft 0 kts 34°
2026-05-06 11:20 33.82217 35.49433 92 ft 0 kts 36°
2026-05-06 11:22 33.82221 35.49436 91 ft 1 kts 36°
2026-05-06 11:23 33.82231 35.49445 91 ft 2 kts 35°
2026-05-06 11:23 33.82246 35.49460 91 ft 3 kts 49°
2026-05-06 11:23 33.82257 35.49490 91 ft 4 kts 86°
2026-05-06 11:23 33.82245 35.49527 91 ft 5 kts 122°
2026-05-06 11:24 33.82220 35.49566 91 ft 6 kts 128°
2026-05-06 11:24 33.82201 35.49615 91 ft 7 kts 83°
2026-05-06 11:24 33.82235 35.49652 91 ft 7 kts 38°
2026-05-06 11:24 33.82273 35.49686 91 ft 8 kts 36°
2026-05-06 11:25 33.82326 35.49731 92 ft 9 kts 35°
2026-05-06 11:25 33.82383 35.49780 91 ft 10 kts 35°
2026-05-06 11:25 33.82445 35.49832 91 ft 11 kts 36°
2026-05-06 11:25 33.82511 35.49888 91 ft 11 kts 36°
2026-05-06 11:26 33.82579 35.49946 91 ft 12 kts 36°
2026-05-06 11:26 33.82651 35.50006 91 ft 12 kts 35°
2026-05-06 11:26 33.82724 35.50069 91 ft 13 kts 35°
2026-05-06 11:26 33.82762 35.50154 91 ft 13 kts 118°
2026-05-06 11:27 33.82708 35.50249 91 ft 13 kts 123°
2026-05-06 11:27 33.82637 35.50268 92 ft 6 kts 217°
2026-05-06 11:27 33.82634 35.50265 91 ft 1 kts 216°
2026-05-06 11:27 33.82524 35.50180 92 ft 51 kts 213°
2026-05-06 11:28 33.82038 35.49804 92 ft 116 kts 213°
2026-05-06 11:28 33.81212 35.49168 107 ft 165 kts 212°
2026-05-06 11:28 33.80232 35.48401 604 ft 171 kts 217°
2026-05-06 11:28 33.79363 35.47394 1238 ft 175 kts 230°
2026-05-06 11:29 33.78577 35.46298 1950 ft 174 kts 226°
2026-05-06 11:29 33.77715 35.45212 2361 ft 188 kts 226°
2026-05-06 11:29 33.76775 35.44028 2741 ft 205 kts 226°
2026-05-06 11:29 33.75723 35.42728 3050 ft 229 kts 225°
2026-05-06 11:30 33.74560 35.41310 3579 ft 244 kts 225°
2026-05-06 11:30 33.73339 35.39833 4123 ft 258 kts 225°
2026-05-06 11:30 33.72069 35.38286 4913 ft 262 kts 229°
2026-05-06 11:30 33.71203 35.36369 5706 ft 267 kts 259°
2026-05-06 11:31 33.71316 35.34169 6520 ft 271 kts 288°
2026-05-06 11:31 33.72285 35.32229 7317 ft 276 kts 315°
2026-05-06 11:31 33.73899 35.31002 8098 ft 281 kts 342°
2026-05-06 11:31 33.75804 35.30773 8872 ft 285 kts
2026-05-06 11:32 33.77776 35.30998 9660 ft 289 kts
2026-05-06 11:32 33.79768 35.31251 10349 ft 295 kts
2026-05-06 11:32 33.81892 35.31541 10769 ft 312 kts
2026-05-06 11:32 33.84105 35.31864 11112 ft 331 kts
2026-05-06 11:33 33.86338 35.32760 11412 ft 351 kts 27°
2026-05-06 11:33 33.88401 35.34399 11967 ft 361 kts 35°
2026-05-06 11:33 33.90440 35.36241 12651 ft 366 kts 36°
2026-05-06 11:33 33.92495 35.38094 13317 ft 370 kts 34°
2026-05-06 11:34 33.94571 35.39920 13971 ft 375 kts 33°
2026-05-06 11:34 33.96709 35.41765 14619 ft 379 kts 33°
2026-05-06 11:34 33.98873 35.43608 15251 ft 383 kts 32°
2026-05-06 11:34 34.01064 35.45461 15873 ft 387 kts 32°
2026-05-06 11:35 34.03284 35.47329 16400 ft 394 kts 32°
2026-05-06 11:35 34.05524 35.49215 16917 ft 399 kts 32°
2026-05-06 11:35 34.07809 35.51141 17486 ft 404 kts 32°
2026-05-06 11:35 34.10030 35.53015 18031 ft 407 kts 31°
2026-05-06 11:36 34.12355 35.54969 18579 ft 411 kts 31°
2026-05-06 11:36 34.14718 35.56953 19107 ft 415 kts 31°
2026-05-06 11:36 34.17117 35.58973 19624 ft 420 kts 31°
2026-05-06 11:36 34.19518 35.61000 20128 ft 424 kts 31°
2026-05-06 11:37 34.21934 35.63045 20622 ft 428 kts 31°
2026-05-06 11:37 34.24381 35.65118 21106 ft 432 kts 31°
2026-05-06 11:37 34.26849 35.67287 21558 ft 438 kts 37°
2026-05-06 11:37 34.28848 35.70122 21932 ft 451 kts 59°
2026-05-06 11:38 34.29917 35.73696 22373 ft 456 kts 82°
2026-05-06 11:38 34.30023 35.77487 22845 ft 456 kts 94°
2026-05-06 11:38 34.29837 35.81369 23250 ft 460 kts 96°
2026-05-06 11:38 34.29613 35.85244 23660 ft 464 kts 96°
2026-05-06 11:39 34.29405 35.89151 24154 ft 465 kts 95°
2026-05-06 11:39 34.29222 35.93031 24556 ft 469 kts 95°
2026-05-06 11:39 34.29051 35.96996 24935 ft 472 kts 95°
2026-05-06 11:39 34.28889 36.01012 25309 ft 476 kts 95°
2026-05-06 11:40 34.28733 36.05001 25681 ft 479 kts 95°
2026-05-06 11:40 34.28574 36.09065 26049 ft 482 kts 95°
2026-05-06 11:40 34.28416 36.13092 26396 ft 485 kts 95°
2026-05-06 11:40 34.28253 36.17230 26743 ft 488 kts 95°
2026-05-06 11:41 34.28091 36.21308 27073 ft 490 kts 95°
2026-05-06 11:41 34.27924 36.25476 27431 ft 492 kts 95°
2026-05-06 11:41 34.27758 36.29606 27892 ft 491 kts 95°
2026-05-06 11:41 34.27591 36.33723 28353 ft 490 kts 95°
2026-05-06 11:42 34.27423 36.37844 28775 ft 490 kts 95°
2026-05-06 11:42 34.27255 36.41930 29193 ft 490 kts 95°
2026-05-06 11:42 34.27084 36.46075 29614 ft 490 kts 95°
2026-05-06 11:42 34.26911 36.50216 30024 ft 489 kts 95°
2026-05-06 11:43 34.26738 36.54317 30426 ft 489 kts 95°
2026-05-06 11:43 34.26550 36.58408 30840 ft 488 kts 96°
2026-05-06 11:43 34.26269 36.62535 31264 ft 486 kts 97°
2026-05-06 11:44 34.25661 36.70632 32023 ft 484 kts 98°
2026-05-06 11:44 34.25351 36.74695 32389 ft 483 kts 99°
2026-05-06 11:44 34.25041 36.78764 32740 ft 482 kts 99°
2026-05-06 11:44 34.24735 36.82766 33074 ft 481 kts 99°
2026-05-06 11:45 34.24429 36.86779 33404 ft 480 kts 99°
2026-05-06 11:45 34.24117 36.90857 33712 ft 480 kts 99°
2026-05-06 11:45 34.23810 36.94853 33999 ft 479 kts 99°
2026-05-06 11:45 34.23500 36.98873 34282 ft 479 kts 99°
2026-05-06 11:46 34.23189 37.02873 34559 ft 478 kts 99°
2026-05-06 11:46 34.22877 37.06869 34825 ft 478 kts 99°
2026-05-06 11:46 34.22560 37.10906 35080 ft 477 kts 99°
2026-05-06 11:46 34.22209 37.14863 35307 ft 475 kts 104°
2026-05-06 11:47 34.21439 37.18749 35505 ft 468 kts 115°
2026-05-06 11:47 34.20178 37.22309 35687 ft 460 kts 126°
2026-05-06 11:47 34.18449 37.25544 35860 ft 451 kts 136°
2026-05-06 11:47 34.16392 37.28285 36019 ft 442 kts 146°
2026-05-06 11:48 34.14006 37.30594 36167 ft 433 kts 155°
2026-05-06 11:48 34.11398 37.32411 36248 ft 427 kts 161°
2026-05-06 11:48 34.06060 37.35532 36410 ft 431 kts 162°
2026-05-06 11:49 34.03355 37.37107 36557 ft 432 kts 162°
2026-05-06 11:49 34.00652 37.38696 36759 ft 431 kts 162°
2026-05-06 11:49 33.97963 37.40288 36954 ft 430 kts 162°
2026-05-06 11:49 33.95291 37.41874 37066 ft 431 kts 162°
2026-05-06 11:50 33.89864 37.45090 37078 ft 438 kts 162°
2026-05-06 11:50 33.84321 37.48367 37082 ft 445 kts 162°
2026-05-06 11:51 33.78754 37.51663 37080 ft 448 kts 162°
2026-05-06 11:51 33.73146 37.54990 37080 ft 448 kts 162°
2026-05-06 11:52 33.67549 37.58306 37080 ft 448 kts 162°
2026-05-06 11:52 33.61968 37.61613 37080 ft 448 kts 162°
2026-05-06 11:53 33.56369 37.64917 37080 ft 448 kts 162°
2026-05-06 11:53 33.50739 37.68195 37080 ft 448 kts 163°
2026-05-06 11:54 33.45115 37.71433 37080 ft 448 kts 163°
2026-05-06 11:54 33.39507 37.74639 37080 ft 448 kts 163°
2026-05-06 11:55 33.33916 37.77819 37080 ft 448 kts 163°
2026-05-06 11:55 33.28296 37.81015 37080 ft 447 kts 163°
2026-05-06 11:56 33.22668 37.84211 37080 ft 447 kts 163°
2026-05-06 11:56 33.17020 37.87416 37080 ft 447 kts 163°
2026-05-06 11:57 33.11383 37.90611 37080 ft 447 kts 163°
2026-05-06 11:57 33.05791 37.93775 37080 ft 447 kts 163°
2026-05-06 11:58 33.00154 37.96964 37080 ft 447 kts 163°
2026-05-06 11:58 32.94544 38.00131 37079 ft 448 kts 163°
2026-05-06 11:59 32.88941 38.03444 37083 ft 447 kts 162°
2026-05-06 11:59 32.83378 38.06746 37080 ft 447 kts 163°
2026-05-06 12:00 32.77810 38.10043 37080 ft 447 kts 163°
2026-05-06 12:00 32.72270 38.13329 37079 ft 441 kts 163°
2026-05-06 12:01 32.66756 38.16594 37080 ft 441 kts 163°
2026-05-06 12:01 32.61302 38.19821 37080 ft 441 kts 163°
2026-05-06 12:02 32.55811 38.23065 37080 ft 441 kts 163°
2026-05-06 12:02 32.50306 38.26314 37080 ft 441 kts 163°
2026-05-06 12:03 32.44820 38.29549 37080 ft 441 kts 163°
2026-05-06 12:03 32.39319 38.32787 37080 ft 441 kts 163°
2026-05-06 12:04 32.33827 38.36017 37080 ft 440 kts 163°
2026-05-06 12:04 32.28343 38.39237 37080 ft 440 kts 163°
2026-05-06 12:05 32.22872 38.42445 37080 ft 440 kts 163°
2026-05-06 12:05 32.17384 38.45660 37080 ft 440 kts 163°
2026-05-06 12:06 32.11880 38.48880 37080 ft 440 kts 163°
2026-05-06 12:06 32.06382 38.52094 37080 ft 440 kts 163°
2026-05-06 12:07 32.00896 38.55298 37080 ft 440 kts 163°
2026-05-06 12:07 31.95380 38.58518 37080 ft 440 kts 163°
2026-05-06 12:08 31.89917 38.61697 37081 ft 440 kts 163°
2026-05-06 12:08 31.84418 38.64878 37080 ft 440 kts 163°
2026-05-06 12:09 31.78915 38.68096 37079 ft 440 kts 163°
2026-05-06 12:09 31.73449 38.71283 37080 ft 439 kts 163°
2026-05-06 12:10 31.68024 38.74647 37079 ft 445 kts 159°
2026-05-06 12:10 31.62729 38.78437 37083 ft 446 kts 158°
2026-05-06 12:11 31.57413 38.82258 37325 ft 445 kts 158°
2026-05-06 12:11 31.54784 38.84145 37461 ft 445 kts 158°
2026-05-06 12:11 31.52162 38.86025 37573 ft 445 kts 158°
2026-05-06 12:12 31.49502 38.87931 37677 ft 445 kts 158°
2026-05-06 12:12 31.46883 38.89806 37776 ft 445 kts 159°
2026-05-06 12:12 31.44231 38.91705 37877 ft 445 kts 159°
2026-05-06 12:12 31.41596 38.93588 37974 ft 445 kts 159°
2026-05-06 12:13 31.36320 38.97355 38157 ft 445 kts 159°
2026-05-06 12:13 31.31040 39.01123 38332 ft 444 kts 159°
2026-05-06 12:14 31.25782 39.04869 38495 ft 444 kts 159°
2026-05-06 12:14 31.20474 39.08646 38650 ft 444 kts 159°
2026-05-06 12:15 31.15221 39.12380 38791 ft 444 kts 159°
2026-05-06 12:15 31.09934 39.16137 38957 ft 443 kts 159°
2026-05-06 12:16 31.04678 39.19864 39069 ft 443 kts 159°
2026-05-06 12:16 30.99390 39.23595 39079 ft 444 kts 159°
2026-05-06 12:17 30.94071 39.27345 39081 ft 447 kts 159°
2026-05-06 12:17 30.88755 39.31092 39086 ft 447 kts 159°
2026-05-06 12:18 30.83435 39.34832 39081 ft 445 kts 159°
2026-05-06 12:18 30.78145 39.38551 39081 ft 444 kts 159°
2026-05-06 12:19 30.72866 39.42264 39080 ft 443 kts 159°
2026-05-06 12:19 30.67602 39.45961 39082 ft 443 kts 159°
2026-05-06 12:20 30.62321 39.49669 39087 ft 443 kts 159°
2026-05-06 12:20 30.57057 39.53366 39095 ft 443 kts 159°
2026-05-06 12:21 30.51748 39.57084 39102 ft 443 kts 159°
2026-05-06 12:21 30.46545 39.60899 39107 ft 449 kts 154°
2026-05-06 12:22 30.41592 39.65506 39108 ft 459 kts 148°
2026-05-06 12:22 30.37145 39.70905 39108 ft 468 kts 140°
2026-05-06 12:23 30.33170 39.76931 39108 ft 473 kts 136°
2026-05-06 12:23 30.29268 39.83049 39109 ft 473 kts 136°
2026-05-06 12:24 30.25341 39.89168 39109 ft 473 kts 136°
2026-05-06 12:24 30.21391 39.95290 39109 ft 473 kts 137°
2026-05-06 12:25 30.17431 40.01415 39109 ft 473 kts 137°
2026-05-06 12:25 30.13510 40.07471 39109 ft 473 kts 137°
2026-05-06 12:26 30.09565 40.13556 39109 ft 473 kts 137°
2026-05-06 12:26 30.05604 40.19660 39109 ft 473 kts 137°
2026-05-06 12:27 30.01665 40.25717 39112 ft 473 kts 137°
2026-05-06 12:27 29.97693 40.31811 39114 ft 473 kts 137°
2026-05-06 12:28 29.93751 40.37847 39108 ft 474 kts 137°
2026-05-06 12:28 29.89781 40.43924 39108 ft 475 kts 137°
2026-05-06 12:29 29.85784 40.50005 39109 ft 474 kts 137°
2026-05-06 12:29 29.81805 40.56072 39109 ft 475 kts 137°
2026-05-06 12:30 29.77828 40.62150 39108 ft 476 kts 136°
2026-05-06 12:30 29.74131 40.68558 39108 ft 482 kts 132°
2026-05-06 12:31 29.70607 40.75148 39108 ft 484 kts 131°
2026-05-06 12:31 29.67069 40.81746 39109 ft 484 kts 132°
2026-05-06 12:32 29.63524 40.88323 39103 ft 484 kts 132°
2026-05-06 12:32 29.59980 40.94880 39088 ft 484 kts 132°
2026-05-06 12:33 29.56416 41.01463 39068 ft 485 kts 132°
2026-05-06 12:33 29.52832 41.08069 39048 ft 485 kts 132°
2026-05-06 12:34 29.49273 41.14623 39035 ft 485 kts 132°
2026-05-06 12:34 29.45683 41.21221 39030 ft 485 kts 132°
2026-05-06 12:35 29.42127 41.27755 39028 ft 485 kts 132°
2026-05-06 12:35 29.38534 41.34344 39030 ft 485 kts 133°
2026-05-06 12:36 29.34949 41.40897 39035 ft 485 kts 133°
2026-05-06 12:36 29.31346 41.47458 39040 ft 485 kts 133°
2026-05-06 12:37 29.27739 41.54029 39046 ft 485 kts 133°
2026-05-06 12:37 29.24156 41.60554 39051 ft 486 kts 133°
2026-05-06 12:38 29.20552 41.67114 39050 ft 485 kts 133°
2026-05-06 12:38 29.16980 41.73638 39053 ft 485 kts 133°
2026-05-06 12:39 29.13370 41.80196 39054 ft 485 kts 133°
2026-05-06 12:39 29.09764 41.86726 39051 ft 485 kts 133°
2026-05-06 12:40 29.06177 41.93207 39046 ft 485 kts 133°
2026-05-06 12:40 29.02556 41.99728 39039 ft 485 kts 133°
2026-05-06 12:41 28.98924 42.06257 39032 ft 486 kts 133°
2026-05-06 12:41 28.95281 42.12799 39029 ft 486 kts 133°
2026-05-06 12:42 28.91659 42.19299 39028 ft 486 kts 133°
2026-05-06 12:42 28.88009 42.25824 39029 ft 486 kts 133°
2026-05-06 12:43 28.84361 42.32306 39028 ft 486 kts 133°
2026-05-06 12:43 28.80725 42.38786 39028 ft 486 kts 133°
2026-05-06 12:44 28.77062 42.45322 39028 ft 486 kts 133°
2026-05-06 12:44 28.73424 42.51812 39028 ft 486 kts 133°
2026-05-06 12:45 28.69766 42.58331 39028 ft 486 kts 133°
2026-05-06 12:46 28.64133 42.67865 39025 ft 477 kts 139°
2026-05-06 12:46 28.59849 42.73517 39028 ft 469 kts 144°
2026-05-06 12:47 28.55423 42.78932 39028 ft 469 kts 144°
2026-05-06 12:47 28.50990 42.84349 39028 ft 469 kts 144°
2026-05-06 12:48 28.46549 42.89782 39027 ft 470 kts 144°
2026-05-06 12:48 28.42085 42.95239 39028 ft 470 kts 144°
2026-05-06 12:49 28.37609 43.00709 39027 ft 470 kts 144°
2026-05-06 12:49 28.33175 43.06120 39024 ft 470 kts 144°
2026-05-06 12:50 28.28715 43.11555 39019 ft 470 kts 144°
2026-05-06 12:50 28.24244 43.16995 39013 ft 470 kts 144°
2026-05-06 12:51 28.19792 43.22406 39007 ft 470 kts 144°
2026-05-06 12:51 28.15333 43.27819 39004 ft 470 kts 144°
2026-05-06 12:52 28.10836 43.33269 39002 ft 470 kts 144°
2026-05-06 12:52 28.06358 43.38692 39002 ft 470 kts 144°
2026-05-06 12:53 28.01916 43.44066 39002 ft 470 kts 144°
2026-05-06 12:53 27.97445 43.49468 39002 ft 470 kts 144°
2026-05-06 12:54 27.92965 43.54877 39002 ft 470 kts 144°
2026-05-06 12:54 27.88498 43.60261 39003 ft 470 kts 144°
2026-05-06 12:55 27.83960 43.65624 38998 ft 466 kts 147°
2026-05-06 12:55 27.79308 43.70713 39000 ft 465 kts 148°
2026-05-06 12:56 27.74676 43.75753 39001 ft 465 kts 148°
2026-05-06 12:56 27.70019 43.80814 39001 ft 465 kts 148°
2026-05-06 12:57 27.65366 43.85865 39001 ft 465 kts 148°
2026-05-06 12:57 27.60703 43.90922 38997 ft 465 kts 148°
2026-05-06 12:58 27.56029 43.95984 38991 ft 465 kts 148°
2026-05-06 12:58 27.51368 44.01026 38983 ft 465 kts 147°
2026-05-06 12:59 27.46706 44.06062 38977 ft 465 kts 147°
2026-05-06 12:59 27.42036 44.11103 38974 ft 465 kts 147°
2026-05-06 13:00 27.37382 44.16119 38973 ft 465 kts 147°
2026-05-06 13:00 27.32691 44.21173 38973 ft 465 kts 147°
2026-05-06 13:01 27.28034 44.26186 38973 ft 463 kts 147°
2026-05-06 13:01 27.23395 44.31173 38973 ft 463 kts 147°
2026-05-06 13:02 27.18738 44.36175 38973 ft 463 kts 147°
2026-05-06 13:02 27.14061 44.41183 38973 ft 463 kts 147°
2026-05-06 13:03 27.09408 44.46166 38973 ft 463 kts 147°
2026-05-06 13:03 27.04757 44.51154 38973 ft 463 kts 147°
2026-05-06 13:04 27.00106 44.56133 38973 ft 463 kts 147°
2026-05-06 13:04 26.95440 44.61101 38969 ft 463 kts 147°
2026-05-06 13:05 26.90750 44.66092 38959 ft 463 kts 147°
2026-05-06 13:05 26.86110 44.71048 38955 ft 462 kts 147°
2026-05-06 13:06 26.81440 44.76016 38950 ft 462 kts 147°
2026-05-06 13:06 26.76794 44.80948 38947 ft 462 kts 147°
2026-05-06 13:07 26.72115 44.85893 38947 ft 462 kts 147°
2026-05-06 13:07 26.67458 44.90813 38947 ft 462 kts 147°
2026-05-06 13:08 26.62787 44.95750 38948 ft 462 kts 147°
2026-05-06 13:08 26.58091 45.00703 38952 ft 462 kts 147°
2026-05-06 13:09 26.53432 45.05598 38956 ft 463 kts 147°
2026-05-06 13:09 26.48754 45.10517 38962 ft 463 kts 147°
2026-05-06 13:09 26.46516 45.13154 38956 ft 476 kts 137°
2026-05-06 13:10 26.44693 45.16348 38963 ft 493 kts 125°
2026-05-06 13:10 26.42336 45.23668 38973 ft 506 kts 114°
2026-05-06 13:11 26.40372 45.31223 38972 ft 506 kts 114°
2026-05-06 13:11 26.38435 45.38747 38972 ft 506 kts 114°
2026-05-06 13:12 26.36492 45.46286 38972 ft 505 kts 113°
2026-05-06 13:12 26.34545 45.53815 38972 ft 505 kts 113°
2026-05-06 13:13 26.32587 45.61360 38972 ft 505 kts 113°
2026-05-06 13:13 26.30633 45.68892 38970 ft 504 kts 114°
2026-05-06 13:14 26.28708 45.76350 38971 ft 504 kts 114°
2026-05-06 13:14 26.26762 45.83876 38971 ft 504 kts 114°
2026-05-06 13:15 26.24579 45.91242 38967 ft 491 kts 125°
2026-05-06 13:15 26.22872 45.94490 38970 ft 479 kts 135°
2026-05-06 13:15 26.20800 45.97275 38971 ft 467 kts 143°
2026-05-06 13:16 26.16177 46.02386 38959 ft 461 kts 149°
2026-05-06 13:16 26.13661 46.04416 38955 ft 444 kts 161°
2026-05-06 13:16 26.10892 46.05759 38954 ft 427 kts 173°
2026-05-06 13:16 26.08025 46.06427 38958 ft 416 kts 181°
2026-05-06 13:17 26.05168 46.06813 38954 ft 414 kts 183°
2026-05-06 13:17 25.99465 46.07434 38949 ft 413 kts 184°
2026-05-06 13:18 25.93736 46.08032 38947 ft 413 kts 184°
2026-05-06 13:18 25.88057 46.08551 38939 ft 407 kts 190°
2026-05-06 13:18 25.85291 46.08176 38949 ft 395 kts 200°
2026-05-06 13:19 25.82647 46.07422 38949 ft 392 kts 202°
2026-05-06 13:19 25.77435 46.05702 38946 ft 392 kts 203°
2026-05-06 13:20 25.72209 46.03930 38947 ft 392 kts 203°
2026-05-06 13:20 25.67007 46.02165 38948 ft 392 kts 203°
2026-05-06 13:21 25.61787 46.00404 38950 ft 393 kts 203°
2026-05-06 13:21 25.56572 45.98639 38953 ft 392 kts 203°
2026-05-06 13:22 25.51358 45.96874 38954 ft 393 kts 203°
2026-05-06 13:22 25.46117 45.95105 38956 ft 394 kts 203°
2026-05-06 13:23 25.40885 45.93338 38958 ft 394 kts 203°
2026-05-06 13:23 25.35374 45.92361 38960 ft 409 kts 188°
2026-05-06 13:24 25.29610 45.93105 38961 ft 427 kts 174°
2026-05-06 13:24 25.24018 45.95643 38959 ft 448 kts 158°
2026-05-06 13:24 25.21422 45.97617 38958 ft 459 kts 150°
2026-05-06 13:25 25.19061 46.00049 38956 ft 471 kts 141°
2026-05-06 13:25 25.17016 46.02902 38952 ft 482 kts 131°
2026-05-06 13:25 25.15351 46.06163 38950 ft 492 kts 121°
2026-05-06 13:26 25.12855 46.13294 38950 ft 497 kts 116°
2026-05-06 13:26 25.10500 46.20481 38947 ft 497 kts 116°
2026-05-06 13:27 25.08104 46.27635 38947 ft 497 kts 117°
2026-05-06 13:27 25.05689 46.34752 38947 ft 497 kts 117°
2026-05-06 13:28 25.03245 46.41913 38947 ft 496 kts 117°
2026-05-06 13:28 25.00814 46.49018 38947 ft 497 kts 117°
2026-05-06 13:29 24.98361 46.56176 38947 ft 497 kts 116°
2026-05-06 13:29 24.95923 46.63279 38947 ft 496 kts 116°
2026-05-06 13:30 24.93490 46.70380 38945 ft 496 kts 117°
2026-05-06 13:30 24.91051 46.77486 38945 ft 496 kts 117°
2026-05-06 13:31 24.88579 46.84626 38946 ft 496 kts 117°
2026-05-06 13:31 24.86106 46.91703 38943 ft 496 kts 117°
2026-05-06 13:32 24.83637 46.98801 38936 ft 496 kts 117°
2026-05-06 13:32 24.81183 47.05868 38928 ft 496 kts 117°
2026-05-06 13:33 24.78703 47.12999 38921 ft 495 kts 116°
2026-05-06 13:33 24.76246 47.20059 38919 ft 496 kts 116°
2026-05-06 13:34 24.73769 47.27164 38919 ft 495 kts 116°
2026-05-06 13:34 24.71291 47.34261 38918 ft 495 kts 116°
2026-05-06 13:35 24.68829 47.41297 38918 ft 495 kts 116°
2026-05-06 13:35 24.66354 47.48362 38918 ft 494 kts 116°
2026-05-06 13:36 24.63880 47.55414 38918 ft 495 kts 116°
2026-05-06 13:36 24.61405 47.62461 38917 ft 494 kts 116°
2026-05-06 13:37 24.58926 47.69539 38912 ft 494 kts 116°
2026-05-06 13:37 24.56454 47.76581 38908 ft 493 kts 116°
2026-05-06 13:38 24.54044 47.83605 38902 ft 493 kts 115°
2026-05-06 13:38 24.51685 47.90713 38892 ft 493 kts 115°
2026-05-06 13:39 24.49354 47.97811 38882 ft 493 kts 115°
2026-05-06 13:39 24.47031 48.04899 38874 ft 493 kts 114°
2026-05-06 13:40 24.44720 48.11953 38871 ft 493 kts 114°
2026-05-06 13:40 24.42393 48.19044 38869 ft 493 kts 114°
2026-05-06 13:41 24.40065 48.26123 38869 ft 493 kts 114°
2026-05-06 13:41 24.37734 48.33199 38869 ft 493 kts 114°
2026-05-06 13:42 24.35400 48.40271 38869 ft 493 kts 114°
2026-05-06 13:42 24.33067 48.47329 38869 ft 493 kts 114°
2026-05-06 13:43 24.30721 48.54415 38869 ft 493 kts 114°
2026-05-06 13:43 24.28382 48.61469 38869 ft 493 kts 114°
2026-05-06 13:44 24.26025 48.68579 38868 ft 493 kts 115°
2026-05-06 13:44 24.23690 48.75635 38868 ft 493 kts 115°
2026-05-06 13:45 24.21350 48.82673 38869 ft 493 kts 115°
2026-05-06 13:45 24.17795 48.93232 38870 ft 492 kts 116°
2026-05-06 13:46 24.15237 49.00204 38868 ft 491 kts 117°
2026-05-06 13:46 24.12679 49.07113 38861 ft 491 kts 117°
2026-05-06 13:47 24.10124 49.14044 38848 ft 490 kts 117°
2026-05-06 13:47 24.07575 49.20977 38832 ft 490 kts 116°
2026-05-06 13:48 24.05028 49.27896 38819 ft 490 kts 116°
2026-05-06 13:48 24.02480 49.34814 38813 ft 489 kts 116°
2026-05-06 13:49 23.99930 49.41723 38810 ft 488 kts 116°
2026-05-06 13:49 23.97390 49.48582 38808 ft 487 kts 116°
2026-05-06 13:50 23.94854 49.55439 38809 ft 486 kts 116°
2026-05-06 13:50 23.92324 49.62264 38809 ft 486 kts 116°
2026-05-06 13:51 23.89765 49.69171 38808 ft 487 kts 116°
2026-05-06 13:51 23.87208 49.76001 38809 ft 487 kts 117°
2026-05-06 13:52 23.84636 49.82863 38809 ft 487 kts 117°
2026-05-06 13:52 23.82083 49.89689 38809 ft 487 kts 116°
2026-05-06 13:53 23.79515 49.96554 38808 ft 487 kts 116°
2026-05-06 13:53 23.76942 50.03422 38807 ft 486 kts 116°
2026-05-06 13:54 23.74388 50.10234 38803 ft 486 kts 116°
2026-05-06 13:54 23.71821 50.17068 38799 ft 486 kts 116°
2026-05-06 13:55 23.69255 50.23891 38796 ft 486 kts 116°
2026-05-06 13:55 23.66673 50.30743 38795 ft 486 kts 116°
2026-05-06 13:56 23.64098 50.37567 38794 ft 485 kts 116°
2026-05-06 13:56 23.61528 50.44367 38796 ft 485 kts 116°
2026-05-06 13:57 23.58961 50.51150 38794 ft 484 kts 116°
2026-05-06 13:57 23.56387 50.57938 38794 ft 483 kts 116°
2026-05-06 13:58 23.53811 50.64724 38794 ft 482 kts 116°
2026-05-06 13:58 23.51250 50.71488 38794 ft 482 kts 116°
2026-05-06 13:59 23.48705 50.78197 38794 ft 481 kts 116°
2026-05-06 13:59 23.46125 50.84972 38795 ft 481 kts 116°
2026-05-06 14:00 23.43564 50.91678 38796 ft 480 kts 116°
2026-05-06 14:00 23.40987 50.98417 38796 ft 480 kts 116°
2026-05-06 14:01 23.38402 51.05160 38794 ft 480 kts 116°
2026-05-06 14:01 23.35823 51.11884 38791 ft 479 kts 116°
2026-05-06 14:02 23.33255 51.18565 38788 ft 479 kts 116°
2026-05-06 14:02 23.30683 51.25250 38786 ft 479 kts 116°
2026-05-06 14:03 23.28107 51.31937 38786 ft 479 kts 116°
2026-05-06 14:03 23.25533 51.38603 38786 ft 478 kts 116°
2026-05-06 14:04 23.22961 51.45258 38786 ft 478 kts 116°
2026-05-06 14:04 23.20394 51.51888 38786 ft 478 kts 116°
2026-05-06 14:05 23.17812 51.58544 38786 ft 478 kts 116°
2026-05-06 14:05 23.15231 51.65195 38786 ft 478 kts 116°
2026-05-06 14:06 23.12649 51.71865 38785 ft 477 kts 116°
2026-05-06 14:06 23.10055 51.78550 38785 ft 477 kts 116°
2026-05-06 14:07 23.07464 51.85198 38785 ft 477 kts 116°
2026-05-06 14:07 23.04882 51.91813 38785 ft 477 kts 116°
2026-05-06 14:08 23.02287 51.98453 38784 ft 477 kts 116°
2026-05-06 14:08 22.99688 52.05088 38784 ft 476 kts 116°
2026-05-06 14:09 22.97095 52.11704 38782 ft 475 kts 116°
2026-05-06 14:09 22.94502 52.18308 38782 ft 475 kts 116°
2026-05-06 14:10 22.91894 52.24946 38782 ft 475 kts 116°
2026-05-06 14:10 22.89297 52.31542 38783 ft 475 kts 116°
2026-05-06 14:11 22.86696 52.38078 38782 ft 475 kts 116°
2026-05-06 14:11 22.84336 52.44819 38783 ft 477 kts 109°
2026-05-06 14:12 22.82769 52.51832 38783 ft 479 kts 101°
2026-05-06 14:12 22.82060 52.58991 38783 ft 481 kts 94°
2026-05-06 14:13 22.81875 52.66311 38781 ft 482 kts 93°
2026-05-06 14:13 22.81716 52.73562 38782 ft 481 kts 93°
2026-05-06 14:14 22.81535 52.80794 38782 ft 482 kts 93°
2026-05-06 14:14 22.81342 52.88044 38781 ft 482 kts 93°
2026-05-06 14:15 22.81143 52.95336 38778 ft 482 kts 93°
2026-05-06 14:15 22.80942 53.02565 38774 ft 482 kts 93°
2026-05-06 14:16 22.80737 53.09819 38770 ft 482 kts 93°
2026-05-06 14:16 22.80527 53.17117 38768 ft 481 kts 93°
2026-05-06 14:17 22.80317 53.24321 38768 ft 481 kts 93°
2026-05-06 14:17 22.80104 53.31564 38767 ft 481 kts 93°
2026-05-06 14:18 22.79885 53.38858 38767 ft 481 kts 93°
2026-05-06 14:18 22.79664 53.46112 38767 ft 481 kts 93°
2026-05-06 14:19 22.79441 53.53335 38768 ft 481 kts 93°
2026-05-06 14:19 22.79216 53.60570 38767 ft 480 kts 93°
2026-05-06 14:20 22.78988 53.67837 38767 ft 480 kts 94°
2026-05-06 14:20 22.78760 53.75092 38768 ft 480 kts 94°
2026-05-06 14:21 22.78533 53.82288 38768 ft 480 kts 93°
2026-05-06 14:21 22.78299 53.89548 38766 ft 480 kts 94°
2026-05-06 14:22 22.78231 53.96781 38763 ft 481 kts 89°
2026-05-06 14:22 22.78903 54.04044 38759 ft 482 kts 81°
2026-05-06 14:23 22.80253 54.11138 38755 ft 482 kts 78°
2026-05-06 14:23 22.81722 54.18225 38754 ft 482 kts 78°
2026-05-06 14:24 22.83173 54.25307 38753 ft 482 kts 78°
2026-05-06 14:24 22.84616 54.32414 38753 ft 482 kts 78°
2026-05-06 14:25 22.86055 54.39531 38753 ft 482 kts 78°
2026-05-06 14:25 22.87470 54.46550 38747 ft 468 kts 78°
2026-05-06 14:26 22.88849 54.53403 38751 ft 462 kts 78°
2026-05-06 14:26 22.90218 54.60225 38749 ft 462 kts 78°
2026-05-06 14:27 22.90909 54.63676 38500 ft 462 kts 78°
2026-05-06 14:27 22.91582 54.67039 38249 ft 459 kts 78°
2026-05-06 14:27 22.92255 54.70421 37999 ft 456 kts 78°
2026-05-06 14:27 22.92924 54.73782 37748 ft 454 kts 78°
2026-05-06 14:28 22.93594 54.77145 37496 ft 452 kts 78°
2026-05-06 14:28 22.94258 54.80479 37211 ft 452 kts 78°
2026-05-06 14:28 22.94920 54.83804 36874 ft 452 kts 78°
2026-05-06 14:28 22.95591 54.87179 36418 ft 453 kts 78°
2026-05-06 14:29 22.96253 54.90512 35899 ft 453 kts 78°
2026-05-06 14:29 22.96914 54.93837 35325 ft 454 kts 78°
2026-05-06 14:29 22.97586 54.97218 34727 ft 455 kts 78°
2026-05-06 14:29 22.98254 55.00577 34121 ft 456 kts 77°
2026-05-06 14:30 22.98925 55.03950 33505 ft 457 kts 77°
2026-05-06 14:30 22.99593 55.07320 32884 ft 459 kts 78°
2026-05-06 14:30 23.00264 55.10715 32251 ft 460 kts 78°
2026-05-06 14:30 23.01100 55.14047 31588 ft 461 kts 69°
2026-05-06 14:31 23.02392 55.17213 30927 ft 461 kts 60°
2026-05-06 14:31 23.04131 55.20111 30257 ft 460 kts 50°
2026-05-06 14:31 23.06276 55.22671 29567 ft 459 kts 41°
2026-05-06 14:31 23.08782 55.24834 28863 ft 457 kts 32°
2026-05-06 14:32 23.11561 55.26529 28149 ft 456 kts 22°
2026-05-06 14:32 23.14527 55.27721 27414 ft 454 kts 14°
2026-05-06 14:32 23.17507 55.28609 26683 ft 455 kts 13°
2026-05-06 14:32 23.20562 55.29460 26167 ft 450 kts 13°
2026-05-06 14:33 23.23426 55.30261 25690 ft 445 kts 13°
2026-05-06 14:33 23.26376 55.31101 25169 ft 441 kts 13°
2026-05-06 14:33 23.29327 55.31953 24514 ft 439 kts 14°
2026-05-06 14:33 23.32289 55.32816 23885 ft 436 kts 14°
2026-05-06 14:34 23.35192 55.33668 23312 ft 432 kts 14°
2026-05-06 14:34 23.38064 55.34513 22757 ft 428 kts 14°
2026-05-06 14:34 23.40879 55.35341 22011 ft 414 kts 15°
2026-05-06 14:34 23.43641 55.36153 20815 ft 417 kts 15°
2026-05-06 14:35 23.46489 55.36992 19980 ft 419 kts 15°
2026-05-06 14:35 23.49272 55.37813 19629 ft 409 kts 15°
2026-05-06 14:35 23.52012 55.38624 19157 ft 403 kts 15°
2026-05-06 14:35 23.54702 55.39424 18596 ft 399 kts 16°
2026-05-06 14:36 23.57359 55.40213 18037 ft 395 kts 16°
2026-05-06 14:36 23.60024 55.41005 17481 ft 392 kts 16°
2026-05-06 14:36 23.62629 55.41779 16923 ft 388 kts 16°
2026-05-06 14:36 23.65226 55.42548 16357 ft 385 kts 16°
2026-05-06 14:37 23.67810 55.43313 15854 ft 381 kts 16°
2026-05-06 14:37 23.70361 55.44068 15251 ft 379 kts 16°
2026-05-06 14:37 23.72929 55.44827 14667 ft 377 kts 16°
2026-05-06 14:37 23.75435 55.45570 14113 ft 374 kts 16°
2026-05-06 14:38 23.77948 55.46315 13553 ft 371 kts 16°
2026-05-06 14:38 23.80457 55.46949 12976 ft 370 kts
2026-05-06 14:38 23.83007 55.46766 12362 ft 370 kts 346°
2026-05-06 14:38 23.85345 55.45608 11809 ft 369 kts 325°
2026-05-06 14:39 23.87161 55.43646 11249 ft 367 kts 304°
2026-05-06 14:39 23.88357 55.41178 10719 ft 364 kts 294°
2026-05-06 14:39 23.89350 55.38665 10311 ft 354 kts 292°
2026-05-06 14:39 23.90425 55.36324 10100 ft 342 kts 304°
2026-05-06 14:40 23.91886 55.34287 9912 ft 330 kts 310°
2026-05-06 14:40 23.93373 55.32431 9719 ft 319 kts 311°
2026-05-06 14:40 23.94835 55.30646 9529 ft 309 kts 311°
2026-05-06 14:40 23.96263 55.28914 9247 ft 303 kts 311°
2026-05-06 14:41 23.97662 55.27223 8852 ft 301 kts 311°
2026-05-06 14:41 23.99077 55.25519 8448 ft 300 kts 312°
2026-05-06 14:41 24.00489 55.23824 8049 ft 298 kts 312°
2026-05-06 14:41 24.01883 55.22149 7669 ft 296 kts 312°
2026-05-06 14:42 24.03270 55.20485 7276 ft 294 kts 312°
2026-05-06 14:42 24.04639 55.18846 6882 ft 292 kts 312°
2026-05-06 14:42 24.06012 55.17202 6490 ft 290 kts 312°
2026-05-06 14:42 24.07365 55.15586 6066 ft 283 kts 312°
2026-05-06 14:43 24.08674 55.14023 5685 ft 268 kts 312°
2026-05-06 14:43 24.09924 55.12535 5254 ft 265 kts 312°
2026-05-06 14:43 24.11183 55.11048 4959 ft 261 kts 312°
2026-05-06 14:43 24.12423 55.09592 4654 ft 258 kts 312°
2026-05-06 14:44 24.13642 55.08162 4327 ft 256 kts 312°
2026-05-06 14:44 24.14859 55.06737 4067 ft 252 kts 312°
2026-05-06 14:44 24.16043 55.05354 4030 ft 242 kts 312°
2026-05-06 14:45 24.18298 55.02722 4018 ft 232 kts 312°
2026-05-06 14:45 24.19405 55.01429 4017 ft 232 kts 312°
2026-05-06 14:45 24.20504 55.00146 4014 ft 232 kts 312°
2026-05-06 14:45 24.21614 54.98848 4012 ft 232 kts 312°
2026-05-06 14:46 24.22723 54.97552 3924 ft 228 kts 312°
2026-05-06 14:46 24.23748 54.96250 3591 ft 229 kts 308°
2026-05-06 14:46 24.24755 54.94875 3270 ft 228 kts 308°
2026-05-06 14:46 24.25708 54.93492 3035 ft 225 kts 305°
2026-05-06 14:47 24.26620 54.92088 3011 ft 226 kts 305°
2026-05-06 14:47 24.27544 54.90684 3002 ft 227 kts 306°
2026-05-06 14:47 24.28463 54.89322 2986 ft 217 kts 306°
2026-05-06 14:47 24.29348 54.88039 3019 ft 198 kts 307°
2026-05-06 14:48 24.30182 54.86847 3044 ft 196 kts 307°
2026-05-06 14:48 24.31006 54.85676 3014 ft 195 kts 307°
2026-05-06 14:48 24.31839 54.84499 3003 ft 195 kts 307°
2026-05-06 14:48 24.32681 54.83312 2999 ft 195 kts 307°
2026-05-06 14:49 24.33503 54.82155 2997 ft 195 kts 307°
2026-05-06 14:49 24.34348 54.80964 2996 ft 195 kts 307°
2026-05-06 14:49 24.35181 54.79791 2927 ft 193 kts 307°
2026-05-06 14:49 24.35978 54.78669 2709 ft 181 kts 308°
2026-05-06 14:50 24.36725 54.77615 2489 ft 172 kts 308°
2026-05-06 14:50 24.37449 54.76595 2257 ft 171 kts 308°
2026-05-06 14:50 24.38170 54.75577 2035 ft 169 kts 308°
2026-05-06 14:50 24.38877 54.74580 1799 ft 159 kts 309°
2026-05-06 14:51 24.39530 54.73657 1565 ft 145 kts 311°
2026-05-06 14:51 24.40133 54.72806 1388 ft 139 kts 312°
2026-05-06 14:51 24.40722 54.71977 1214 ft 136 kts 311°
2026-05-06 14:51 24.41304 54.71156 1042 ft 135 kts 311°
2026-05-06 14:52 24.41888 54.70343 850 ft 135 kts 312°
2026-05-06 14:52 24.42465 54.69533 668 ft 134 kts 311°
2026-05-06 14:52 24.43031 54.68711 497 ft 134 kts 311°
2026-05-06 14:52 24.43600 54.67902 313 ft 134 kts 312°
2026-05-06 14:53 24.44171 54.67104 152 ft 133 kts 312°
2026-05-06 14:53 24.44719 54.66347 92 ft 107 kts 308°
2026-05-06 14:53 24.45072 54.65846 92 ft 57 kts 309°
2026-05-06 14:53 24.45302 54.65525 92 ft 50 kts 309°
2026-05-06 14:54 24.45508 54.65236 92 ft 45 kts 309°
2026-05-06 14:54 24.45632 54.64948 92 ft 34 kts 283°
2026-05-06 14:54 24.45662 54.64773 92 ft 22 kts 281°
2026-05-06 14:54 24.45701 54.64616 92 ft 20 kts 253°
2026-05-06 14:55 24.45613 54.64617 92 ft 15 kts 129°
2026-05-06 14:55 24.45546 54.64713 92 ft 15 kts 128°
2026-05-06 14:55 24.45477 54.64811 92 ft 16 kts 127°
2026-05-06 14:55 24.45407 54.64908 92 ft 16 kts 128°
2026-05-06 14:56 24.45373 54.64956 92 ft 0 kts 128°
2026-05-06 14:56 24.45370 54.64960 92 ft 1 kts 128°
2026-05-06 14:57 24.45362 54.64972 92 ft 2 kts 128°
2026-05-06 14:57 24.45342 54.65000 92 ft 7 kts 128°
2026-05-06 14:57 24.45298 54.65062 92 ft 12 kts 128°
2026-05-06 14:57 24.45241 54.65142 92 ft 13 kts 128°
2026-05-06 14:58 24.45179 54.65224 92 ft 13 kts 146°
2026-05-06 14:58 24.45095 54.65190 92 ft 14 kts 219°
2026-05-06 14:58 24.45016 54.65124 92 ft 14 kts 217°
2026-05-06 14:58 24.44934 54.65055 92 ft 14 kts 217°
2026-05-06 14:59 24.44852 54.64985 92 ft 15 kts 218°
2026-05-06 14:59 24.44766 54.64913 92 ft 15 kts 218°
2026-05-06 14:59 24.44681 54.64840 92 ft 15 kts 218°
2026-05-06 14:59 24.44594 54.64763 92 ft 15 kts 236°
2026-05-06 15:00 24.44618 54.64659 92 ft 10 kts 281°
2026-05-06 15:00 24.44601 54.64583 92 ft 6 kts 253°
2026-05-06 15:00 24.44589 54.64539 92 ft 4 kts 253°
2026-05-06 15:00 24.44587 54.64534 92 ft 0 kts 253°